Location: Unspecified
(40.7945°N, 111.1337°W)
Time: 14:04:27
(UTC-06:00)

ISS - Visible Passes

Search period start: 25 May 2017 00:00
Search period end: 04 June 2017 00:00
Orbit: 402 x 408 km, 51.6° (Epoch: 26 May)

Date Brightness Start Highest point End Pass type
(mag) Time Alt. Az. Time Alt. Az. Time Alt. Az.
25 May -0.4 00:49:50 10° NW 00:51:30 13° N 00:53:08 10° NNE visible
25 May -0.7 02:26:54 10° NNW 02:29:02 16° NNE 02:31:08 10° NE visible
25 May -3.2 04:02:51 10° NW 04:06:04 56° NNE 04:09:16 10° ESE visible
25 May -2.8 22:18:51 10° WSW 22:22:03 48° NNW 22:25:15 10° NE visible
25 May -0.6 23:57:08 10° NW 23:59:09 15° NNW 00:01:10 10° NNE visible
26 May -0.4 01:34:57 10° NNW 01:36:41 13° N 01:38:25 10° NE visible
26 May -2.1 03:10:55 10° NW 03:13:57 33° NNE 03:16:56 10° E visible
26 May -3.0 04:47:29 10° WNW 04:50:23 29° SW 04:53:16 10° SSE visible
26 May -3.8 21:26:41 10° SW 21:29:58 88° NNW 21:33:15 10° NE visible
26 May -0.9 23:04:24 10° WNW 23:06:51 19° NNW 23:09:16 10° NNE visible
27 May -0.4 00:42:48 10° NNW 00:44:19 13° N 00:45:50 10° NNE visible
27 May -1.3 02:19:02 10° NNW 02:21:43 23° NNE 02:23:11 17° ENE visible
27 May -1.4 03:55:13 10° WNW 04:01:13 13° SE 04:01:38 10° SE visible
27 May -1.4 22:11:45 10° W 22:14:34 26° NNW 22:17:23 10° NE visible
27 May -0.5 23:50:22 10° NNW 23:51:55 13° N 23:53:30 10° NNE visible
28 May -0.9 01:27:09 10° NNW 01:29:26 17° NNE 01:30:09 16° NNE visible
28 May -2.2 21:19:14 10° W 21:22:20 39° NNW 21:25:28 10° NE visible
28 May -0.6 22:57:39 10° NW 22:59:32 14° N 23:01:24 10° NNE visible
29 May -0.6 00:35:12 10° NNW 00:37:04 14° N 00:38:57 10° NE visible
29 May -0.9 02:11:07 10° NW 02:11:34 13° NW 02:11:34 13° NW visible
29 May -0.8 22:04:53 10° WNW 22:07:10 17° NNW 22:09:26 10° NNE visible
29 May -0.6 23:43:05 10° NNW 23:44:40 13° N 23:46:15 10° NNE visible
30 May -1.1 01:19:12 10° NW 01:20:44 20° NNW 01:20:44 20° NNW visible
30 May -0.7 22:50:43 10° NNW 22:52:14 13° N 22:53:46 10° NNE visible
31 May -1.3 00:27:16 10° NNW 00:29:43 19° NNE 00:30:04 19° NNE visible
31 May -0.7 21:58:04 10° NW 21:59:48 13° N 22:01:33 10° NNE visible
31 May -0.9 23:35:19 10° NNW 23:37:20 15° NNE 23:39:22 10° NE visible
01 Jun -1.0 01:11:15 10° NW 01:12:05 16° NW 01:12:05 16° NW visible
01 Jun -0.8 22:43:14 10° NNW 22:44:54 13° N 22:46:34 10° NE visible
02 Jun -1.7 00:19:15 10° NW 00:21:32 27° N 00:21:32 27° N visible
02 Jun -0.8 21:50:56 10° NNW 21:52:27 12° N 21:53:57 10° NNE visible
02 Jun -1.6 23:27:17 10° NNW 23:29:53 21° NNE 23:31:01 18° NE visible
03 Jun -0.8 01:03:23 10° WNW 01:03:39 12° WNW 01:03:39 12° WNW visible
03 Jun -1.1 22:35:18 10° NNW 22:37:29 16° NNE 22:39:39 10° ENE visible
